Regional Weather Roundup
Issued by NWS

Home | Current Version | Previous Version | Graphics & Text | Print | Product List | Glossary On
Versions: 1 2 3 4 5 6 7 8 9 10 11 12 13 14 15 16 17 18 19 20 21 22 23 24 25 26 27 28 29 30 31 32 33 34 35 36 37 38 39 40 41 42 43 44 45 46 47 48 49 50
000
ASUS43 KMPX 271601
RWRMN
WEATHER ROUNDUP FOR MINNESOTA
NATIONAL WEATHER SERVICE TWIN CITIES/CHANHASSEN MN
1100 AM CDT THU APR 27 2017


NOTE: "FAIR" INDICATES FEW OR NO CLOUDS BELOW 12,000 FEET WITH NO
SIGNIFICANT WEATHER AND/OR OBSTRUCTIONS TO VISIBILITY. N/A MEANS
CURRENT SKY AND/OR WEATHER CONDITIONS ARE NOT AVAILABLE.

MNZ060>063-068>070-271700-
   Twin Cities Metro

CITY           SKY/WX    TMP DP  RH WIND       PRES   REMARKS
TWIN CITIES    CLOUDY    34  26  72 NW13      29.57R WCI  25
ST PAUL        CLOUDY    33  27  78 NW8       29.58R WCI  26
CRYSTAL        CLOUDY    32  23  69 NW13      29.56R WCI  22
BLAINE         CLOUDY    34  28  80 NW12      29.56R WCI  25
LAKEVILLE      CLOUDY    32  30  93 NW8       29.57R WCI  25
EDEN PRAIRIE   CLOUDY    34  26  72 NW14      29.57R WCI  25
SOUTH ST PAUL  CLOUDY    33  28  81 NW7       29.56S WCI  27
LAKE ELMO      CLOUDY    32  28  86 NW7       29.56S WCI  26
$$
MNZ001>005-007-008-013>017-022>024-027-028-271700-
   Northwest Minnesota

CITY           SKY/WX    TMP DP  RH WIND       PRES   REMARKS
BEMIDJI        CLOUDY    24  19  83 N14       29.60S WCI  11
HALLOCK        PTSUNNY   34  21  60 N12       29.70S WCI  25
ROSEAU         CLOUDY    28  21  74 N13       29.66F WCI  18
WARROAD        CLOUDY    27  21  80 N12       29.66F WCI  16
THIEF RVR FALL CLOUDY    30  21  69 N15       29.67S WCI  19
CROOKSTON      CLOUDY    28  25  86 N15       29.70S WCI  17
FOSSTON        CLOUDY    27  19  74 N17G24    29.65R WCI  14
DETROIT LAKES  CLOUDY    28  21  74 N12G20    29.64S WCI  18
MOORHEAD       PTSUNNY   28  25  86 N7        29.69F WCI  21
PARK RAPIDS    CLOUDY    26  16  65 N18       29.59S WCI  13
MAHNOMEN       CLOUDY    26  21  80 N7        29.64S WCI  18
$$
MNZ006-009>011-018-025>026-271700-
   North Central Minnesota

CITY           SKY/WX    TMP DP  RH WIND       PRES   REMARKS
BAUDETTE       CLOUDY    25  17  72 N13G21    29.61F WCI  14
FLAG ISLAND    LGT SNOW  25  21  86 N18       29.65F WCI  11
INTL FALLS     CLOUDY    24  15  68 N10       29.58F WCI  14
WASKISH        CLOUDY    27  18  69 N8        29.61S WCI  18
BIG FORK       FLURRIES  27  16  63 NW6       29.57R WCI  20
LONGVILLE      CLOUDY    25  19  80 NW5       29.58S WCI  19
GRAND RAPIDS   FLURRIES  24  17  74 N14       29.57S WCI  12
CRANE LAKE     FLURRIES  23  16  74 N6        29.57S WCI  16
ORR            CLOUDY    25  12  58 NW7       29.52S WCI  17
COOK           CLOUDY    23  16  74 NW9       29.54S WCI  13
WALKER         CLOUDY    24  16  73 NW14G21   29.58F WCI  12
$$
MNZ012-019>021-037-271700-
   Northeast Minnesota

CITY           SKY/WX    TMP DP  RH WIND       PRES   REMARKS
DULUTH         CLOUDY    25  19  78 N14G23    29.49S WCI  13
ELY            CLOUDY    21  14  73 N6        29.50S WCI  14
HIBBING        CLOUDY    22  17  81 N15       29.53R WCI   9
EVELETH        CLOUDY    24  15  69 NW10      29.52S WCI  13
DULUTH HARBOR  CLOUDY    28  21  74 NW12      29.54S WCI  18
TWO HARBORS    CLOUDY    28  21  74 NW6       29.48S WCI  22
SILVER BAY     CLOUDY    27  21  80 NW8       29.46S WCI  18
G MARAIS ARPRT CLOUDY    18  12  79 NW3       29.37F
$$
MNZ029>031-032-039>041-046>048-054>057-064-271700-
   West Central Minnesota

CITY           SKY/WX    TMP DP  RH WIND       PRES   REMARKS
FERGUS FALLS   CLOUDY    28  19  69 N17G26    29.65S WCI  16
WHEATON        CLOUDY    30  19  64 NW20G25   29.69S WCI  18
MORRIS         CLOUDY    28  21  74 NW22G29   29.62S WCI  15
ALEXANDRIA     CLOUDY    27  22  81 N16       29.60R WCI  15
ELBOW LAKE     CLOUDY    28  21  74 N17       29.63S WCI  16
WADENA         CLOUDY    25  19  80 N9        29.59S WCI  15
GLENWOOD       CLOUDY    28  23  80 N12G17    29.61R WCI  18
APPLETON       CLOUDY    30  23  74 NW18      29.65R WCI  18
BENSON         CLOUDY    32  25  74 N15       29.64R WCI  22
ORTONVILLE     CLOUDY    30  21  69 NW21G28   29.66R WCI  17
MADISON        CLOUDY    34  25  69 NW20      29.66R WCI  22
WILLMAR        CLOUDY    32  27  80 NW16      29.62R WCI  21
$$
MNZ033>034-036-042>043-049>051-058-059-271700-
   Central Minnesota

CITY           SKY/WX    TMP DP  RH WIND       PRES   REMARKS
ST CLOUD       CLOUDY    30  24  78 NW14      29.58R WCI  19
SAUK CENTRE    CLOUDY    28  20  71 NW16G22   29.60R WCI  16
PAYNESVILLE    CLOUDY    30  23  76 N13G18    29.60R WCI  20
AITKIN         CLOUDY    27  19  74 NW8       29.55S WCI  18
PINE RIVER     CLOUDY    25  19  80 N10       29.62R WCI  15
BRAINERD       CLOUDY    26  20  77 NW14      29.58R WCI  14
STAPLES        CLOUDY    25  19  80 N13       29.59S WCI  13
LONG PRAIRIE   CLOUDY    28  21  74 CALM      29.59R
LITTLE FALLS   CLOUDY    28  21  74 N8G17     29.59R WCI  20
LITCHFIELD     CLOUDY    34  27  75 NW13G18   29.59R WCI  25
BUFFALO        CLOUDY    31  25  76 NW10      29.59R WCI  23
MAPLE LAKE     CLOUDY    32  28  83 NW9       29.59R WCI  24
HUTCHINSON     CLOUDY    33  28  81 NW13      29.60R WCI  23
$$
MNZ037-044-045-052-053-271700-
   East Central Minnesota

CITY           SKY/WX    TMP DP  RH WIND       PRES   REMARKS
PRINCETON      CLOUDY    32  25  74 W9        29.57R WCI  24
MORA           LGT SNOW  28  23  80 N7        29.57R WCI  21
CAMBRIDGE      CLOUDY    30  21  69 N7        29.55R WCI  23
RUSH CITY      CLOUDY    28  23  80 NW7       29.56R WCI  21
MOOSE LAKE     CLOUDY    28  21  74 N8        29.53R WCI  20
HINCKLEY       CLOUDY    28  23  80 NW9       29.55S HAZE    WCI  20
CLOQUET        CLOUDY    25  19  80 NW12G17   29.52R WCI  14
MCGREGOR       CLOUDY    27  21  80 N9        29.56R WCI  17
$$
MNZ071>073-080-081-089-090-097-098-271700-
   Southwest Minnesota

CITY           SKY/WX    TMP DP  RH WIND       PRES   REMARKS
MONTEVIDEO     CLOUDY    30  25  80 N16G26    29.64R WCI  19
GRANITE FALLS  CLOUDY    33  27  79 NW14G22   29.66R WCI  23
CANBY          CLOUDY    32  26  77 W18G25    29.68R WCI  20
MARSHALL       CLOUDY    32  25  75 NW20G25   29.65R WCI  20
REDWOOD FALLS  CLOUDY    32  24  72 NW14G21   29.63R WCI  22
OLIVIA         CLOUDY    32  28  86 NW15G21   29.61R WCI  22
PIPESTONE      CLOUDY    34  21  60 N16G25    29.65R WCI  23
WINDOM         CLOUDY    30  27  86 W17G23    29.64R WCI  18
WORTHINGTON    CLOUDY    32  24  72 NW17G23   29.66R WCI  21
JACKSON        CLOUDY    32  27  80 NW17G24   29.65R WCI  21
TRACY          CLOUDY    32  26  81 NW17      29.66R WCI  20
SLAYTON        CLOUDY    30  24  79 NW16      29.65R WCI  18
$$
MNZ065>067-074>077-082>085-091>093-271700-
   South Central Minnesota

CITY           SKY/WX    TMP DP  RH WIND       PRES   REMARKS
MANKATO        MIX PCPN  33  29  85 W12       29.61R WCI  24
NEW ULM        CLOUDY    32  28  86 NW15      29.62R WCI  22
ST JAMES       CLOUDY    34  28  80 W17       29.64R WCI  23
FAIRMONT       CLOUDY    33  26  75 NW18      29.64R WCI  22
GLENCOE        CLOUDY    33  31  91 NW9       29.59R WCI  25
FARIBAULT      DRIZZLE   34  30  86 W12       29.58R WCI  25
OWATONNA       DRIZZLE   34  30  86 NW12      29.58R WCI  25
WASECA         CLOUDY    34  30  86 W15       29.60R WCI  24
ALBERT LEA     DRIZZLE   32  30  93 NW10G21   29.59R WCI  24
$$
MNZ078>079-086>088-094>096-271700-
   Southeast Minnesota

CITY           SKY/WX    TMP DP  RH WIND       PRES   REMARKS
ROCHESTER      CLOUDY    36  33  89 W15       29.54R
RED WING       CLOUDY    36  27  69 NW10      29.54S
STANTON        CLOUDY    35  32  89 NW12      29.56R FOG     WCI  26
DODGE CENTER   CLOUDY    34  30  86 W14       29.55R WCI  24
WINONA         CLOUDY    37  32  81 NW15G21   29.53R
AUSTIN         CLOUDY    34  28  80 W12       29.57R WCI  25
PRESTON        CLOUDY    35  32  88 W16       29.54R FOG     WCI  25
$$
ABBREVIATIONS USED IN REMARKS
   TC - TEMPERATURES IN CELSIUS
  WCI - WIND CHILL INDEX
   HX - HEAT INDEX
  VSB - VISIBILITY
$$




USA.gov is the U.S. government's official web portal to all federal, state and local government web resources and services.